TimeAEST,TemperatureF,Dew PointF,Humidity,Sea Level PressureIn,VisibilityMPH,Wind Direction,Wind SpeedMPH,Gust SpeedMPH,PrecipitationIn,Events,Conditions,WindDirDegrees,DateUTC
12:00 AM,75,68,74,29.94,,South,6.9,,,,Overcast,190,2013-05-13 14:00:00
12:00 AM,75.2,68.0,78,29.92,6.2,South,6.9,-,N/A,,Mostly Cloudy,190,2013-05-13 14:00:00
12:30 AM,75.2,68.0,78,29.92,6.2,South,6.9,-,N/A,,Mostly Cloudy,180,2013-05-13 14:30:00
1:00 AM,75,67,71,29.93,,South,5.8,,,,,180,2013-05-13 15:00:00
1:00 AM,75.2,68.0,78,29.92,6.2,South,5.8,-,N/A,,Scattered Clouds,180,2013-05-13 15:00:00
1:30 AM,75.2,68.0,78,29.92,6.2,South,6.9,-,N/A,,Mostly Cloudy,180,2013-05-13 15:30:00
2:00 AM,73.4,68.0,83,29.89,6.2,SE,2.3,-,N/A,,Mostly Cloudy,140,2013-05-13 16:00:00
2:30 AM,73.4,68.0,83,29.89,6.2,SSE,5.8,-,N/A,,Scattered Clouds,150,2013-05-13 16:30:00
3:00 AM,72,68,83,29.89,,SSE,5.8,,,,,160,2013-05-13 17:00:00
3:00 AM,73.4,68.0,83,29.89,6.2,SSE,5.8,-,N/A,,Scattered Clouds,160,2013-05-13 17:00:00
3:30 AM,71.6,68.0,88,29.86,6.2,SE,4.6,-,N/A,,Partly Cloudy,140,2013-05-13 17:30:00
4:00 AM,71,68,88,29.89,,SSE,2.3,,,,,150,2013-05-13 18:00:00
4:00 AM,71.6,68.0,88,29.89,6.2,SSE,2.3,-,N/A,,Partly Cloudy,150,2013-05-13 18:00:00
4:30 AM,71.6,68.0,88,29.89,6.2,SSE,2.3,-,N/A,,Partly Cloudy,160,2013-05-13 18:30:00
5:00 AM,69.8,68.0,94,29.89,6.2,South,3.5,-,N/A,,Partly Cloudy,180,2013-05-13 19:00:00
5:30 AM,69.8,68.0,94,29.89,6.2,SE,1.2,-,N/A,,Partly Cloudy,130,2013-05-13 19:30:00
6:30 AM,69.8,68.0,94,29.92,6.2,West,3.5,-,N/A,,Scattered Clouds,280,2013-05-13 20:30:00
7:00 AM,70,68,91,29.93,,North,2.3,,,,,0,2013-05-13 21:00:00
7:00 AM,69.8,68.0,94,29.92,6.2,North,2.3,-,N/A,,Partly Cloudy,360,2013-05-13 21:00:00
7:30 AM,73.4,68.0,83,29.92,6.2,Calm,Calm,-,N/A,,Partly Cloudy,0,2013-05-13 21:30:00
8:00 AM,75.2,69.8,83,29.92,6.2,South,4.6,-,N/A,,Partly Cloudy,190,2013-05-13 22:00:00
8:30 AM,77.0,69.8,78,29.92,6.2,SSE,8.1,-,N/A,,Partly Cloudy,150,2013-05-13 22:30:00
9:00 AM,78,68,65,29.93,19,South,8.1,,,,Partly Cloudy,170,2013-05-13 23:00:00
9:00 AM,77.0,68.0,74,29.92,6.2,South,8.1,-,N/A,,Scattered Clouds,170,2013-05-13 23:00:00
9:30 AM,78.8,68.0,69,29.92,6.2,South,10.4,-,N/A,,Scattered Clouds,170,2013-05-13 23:30:00
10:00 AM,79,67,60,29.94,,SSE,10.4,,,,,160,2013-05-14 00:00:00
10:00 AM,78.8,68.0,69,29.92,6.2,SSE,10.4,-,N/A,,Mostly Cloudy,160,2013-05-14 00:00:00
10:35 AM,80.6,68.0,65,29.92,6.2,South,8.1,-,N/A,,Mostly Cloudy,180,2013-05-14 00:35:00
11:00 AM,82.4,68.0,62,29.89,6.2,SSE,9.2,-,N/A,,Mostly Cloudy,150,2013-05-14 01:00:00
11:30 AM,82.4,66.2,58,29.89,6.2,South,8.1,-,N/A,,Mostly Cloudy,170,2013-05-14 01:30:00
12:00 PM,83,66,47,29.89,19,East,6.9,,,,Partly Cloudy,90,2013-05-14 02:00:00
12:00 PM,82.4,66.2,58,29.89,6.2,East,6.9,-,N/A,,Mostly Cloudy,90,2013-05-14 02:00:00
12:30 PM,84.2,68.0,58,29.86,6.2,East,6.9,-,N/A,,Mostly Cloudy,80,2013-05-14 02:30:00
1:00 PM,82,66,50,29.87,,NE,10.4,,,,,50,2013-05-14 03:00:00
1:00 PM,82.4,66.2,58,29.86,6.2,NE,10.4,-,N/A,,Mostly Cloudy,50,2013-05-14 03:00:00
1:30 PM,82.4,66.2,58,29.83,6.2,ENE,10.4,-,N/A,,Mostly Cloudy,70,2013-05-14 03:30:00
2:00 PM,82.4,66.2,58,29.83,6.2,ENE,10.4,-,N/A,,Mostly Cloudy,60,2013-05-14 04:00:00
2:30 PM,84.2,66.2,55,29.83,6.2,ENE,11.5,-,N/A,,Scattered Clouds,60,2013-05-14 04:30:00
3:00 PM,83,65,45,29.82,19,ENE,10.4,,,,Partly Cloudy,60,2013-05-14 05:00:00
3:00 PM,82.4,64.4,54,29.80,6.2,ENE,10.4,-,N/A,,Scattered Clouds,60,2013-05-14 05:00:00
3:30 PM,82.4,66.2,58,29.80,6.2,ENE,10.4,-,N/A,,Scattered Clouds,60,2013-05-14 05:30:00
4:00 PM,82.4,68.0,62,29.80,6.2,ENE,11.5,-,N/A,,Scattered Clouds,60,2013-05-14 06:00:00
4:30 PM,80.6,68.0,65,29.83,6.2,ENE,11.5,-,N/A,,Mostly Cloudy,70,2013-05-14 06:30:00
5:00 PM,80.6,68.0,65,29.83,6.2,ENE,10.4,-,N/A,,Mostly Cloudy,70,2013-05-14 07:00:00
5:30 PM,78.8,69.8,74,29.83,6.2,ENE,8.1,-,N/A,,Mostly Cloudy,70,2013-05-14 07:30:00
6:00 PM,77,68,67,29.85,,South,6.9,,,,,190,2013-05-14 08:00:00
6:00 PM,77.0,68.0,74,29.83,6.2,South,6.9,-,N/A,,Mostly Cloudy,190,2013-05-14 08:00:00
6:30 PM,77.0,68.0,74,29.86,6.2,SSW,4.6,-,N/A,,Partly Cloudy,210,2013-05-14 08:30:00
7:00 PM,75,68,74,29.88,,South,6.9,,,,,170,2013-05-14 09:00:00
7:00 PM,75.2,68.0,78,29.86,6.2,South,6.9,-,N/A,,Partly Cloudy,170,2013-05-14 09:00:00
7:30 PM,75.2,68.0,78,29.89,6.2,SSE,8.1,-,N/A,,Partly Cloudy,150,2013-05-14 09:30:00
8:00 PM,75.2,68.0,78,29.89,6.2,South,6.9,-,N/A,,Partly Cloudy,170,2013-05-14 10:00:00
8:30 PM,75.2,68.0,78,29.89,6.2,South,9.2,-,N/A,,Partly Cloudy,170,2013-05-14 10:30:00
9:00 PM,75,69,75,29.92,,South,8.1,,,,,180,2013-05-14 11:00:00
9:00 PM,75.2,68.0,78,29.92,6.2,South,8.1,-,N/A,,Partly Cloudy,170,2013-05-14 11:00:00
9:30 PM,73.4,69.8,88,29.92,6.2,South,6.9,-,N/A,,Partly Cloudy,170,2013-05-14 11:30:00
10:00 PM,74,69,80,29.93,,South,8.1,,,,,180,2013-05-14 12:00:00
10:00 PM,75.2,69.8,83,29.92,6.2,South,8.1,-,N/A,,Mostly Cloudy,180,2013-05-14 12:00:00
10:30 PM,73.4,69.8,88,29.92,6.2,South,5.8,-,N/A,,Mostly Cloudy,170,2013-05-14 12:30:00
11:00 PM,73.4,69.8,88,29.92,6.2,South,5.8,-,N/A,,Mostly Cloudy,170,2013-05-14 13:00:00
11:30 PM,73.4,69.8,88,29.92,6.2,SSE,6.9,-,N/A,,Scattered Clouds,160,2013-05-14 13:30:00